Location: ??????????
(54.8537°N, 38.8755°E)
Time: 07:10:34
(UTC+00:00)

Vanguard 1 - All Passes

Search period start: 19 September 2024 00:00
Search period end: 29 September 2024 00:00
Orbit: 649 x 3825 km, 34.2° (Epoch: 17 September)

Date Brightness Start Highest point End Pass type
(mag) Time Alt. Az. Time Alt. Az. Time Alt. Az.
19 Sep - 07:48:14 10° SSW 07:55:35 16° SSE 08:01:15 10° SE daylight
19 Sep - 10:08:04 10° SW 10:15:35 19° S 10:20:55 10° SE daylight
19 Sep - 12:31:46 10° SW 12:34:24 12° SSW 12:36:42 10° S daylight
20 Sep - 08:05:58 10° SSW 08:15:02 19° SSE 08:21:35 10° SE daylight
20 Sep - 10:27:16 10° SW 10:34:56 20° S 10:40:18 10° SE daylight
21 Sep - 06:07:52 10° S 06:13:49 13° SSE 06:18:52 10° SE daylight
21 Sep - 08:24:18 10° SSW 08:34:28 21° S 08:41:31 10° SE daylight
21 Sep - 10:46:42 10° SW 10:54:13 20° SSW 10:59:32 10° SSE daylight
22 Sep - 06:23:54 10° S 06:33:13 16° SSE 06:40:26 10° ESE daylight
22 Sep - 08:43:02 10° SW 08:53:54 24° S 09:01:11 10° SE daylight
22 Sep - 11:06:19 10° WSW 11:13:26 19° SSW 11:18:32 10° SSE daylight
23 Sep - 06:41:12 10° SSW 06:52:38 20° SSE 07:00:58 10° ESE daylight
23 Sep - 09:02:03 10° SW 09:13:17 25° S 09:20:40 10° SE daylight
23 Sep - 11:26:10 10° WSW 11:32:34 17° SSW 11:37:19 10° SSE daylight
24 Sep - 04:45:15 10° SSE 04:50:59 12° SE 04:56:05 10° SE daylight
24 Sep - 06:59:11 10° SSW 07:12:03 24° SSE 07:21:01 10° ESE daylight
24 Sep - 09:21:18 10° SW 09:32:37 26° S 09:40:00 10° SE daylight
24 Sep - 11:46:18 10° WSW 11:51:38 15° SSW 11:55:46 10° S daylight
25 Sep - 05:00:05 10° S 05:10:15 16° SSE 05:18:32 10° ESE daylight
25 Sep - 07:17:38 10° SW 07:31:28 27° S 07:40:48 10° ESE daylight
25 Sep - 09:40:44 10° WSW 09:51:53 26° SSW 09:59:11 10° SE daylight
25 Sep - 12:07:02 10° WSW 12:10:35 12° SW 12:13:34 10° SSW daylight
26 Sep - 05:16:45 10° S 05:29:34 20° SSE 05:39:27 10° ESE daylight
26 Sep - 07:36:24 10° SW 07:50:51 29° S 08:00:24 10° ESE daylight
26 Sep - 10:00:20 10° WSW 10:11:06 25° SSW 10:18:13 10° SSE daylight
27 Sep - 05:34:16 10° SSW 05:48:54 24° SSE 05:59:44 10° ESE daylight
27 Sep - 07:55:27 10° SW 08:10:14 30° S 08:19:50 10° SE daylight
27 Sep - 10:20:06 10° WSW 10:30:13 23° SSW 10:37:05 10° SSE daylight
28 Sep - 03:37:31 10° SSE 03:46:51 14° SE 03:55:04 10° ESE daylight
28 Sep - 05:52:20 10° SSW 06:08:16 28° SSE 06:19:41 10° ESE daylight
28 Sep - 08:14:41 10° WSW 08:29:34 31° S 08:39:08 10° SE daylight
28 Sep - 10:40:04 10° WSW 10:49:15 20° SSW 10:55:42 10° SSE daylight
